Regional Weather Roundup
Issued by NWS

Home | Current Version | Previous Version | Text Only | Print | Product List | Glossary On
Versions: 1 2 3 4 5 6 7 8 9 10 11 12 13 14 15 16 17 18 19 20 21 22 23 24 25 26 27 28 29 30 31 32 33 34 35 36 37 38 39 40 41 42 43 44 45 46 47 48 49 50
000
ASUS44 KBMX 300110
RWRAL

ALABAMA REGIONAL WEATHER ROUNDUP
NATIONAL WEATHER SERVICE BIRMINGHAM AL
800 PM CDT WED JUL 29 2015

NOTE: "FAIR" INDICATES FEW OR NO CLOUDS BELOW 12,000 FEET
WITH NO SIGNIFICANT WEATHER AND/OR OBSTRUCTIONS TO VISIBILITY.

THE REMARK "TC" DENOTES TEMPERATURE IN DEGREES CELSIUS.

ALZ001>011-014-016>018-020-300200-
NORTH ALABAMA

CITY           SKY/WX    TMP DP  RH WIND       PRES   REMARKS
MUSCLE SHOALS  MOCLDY    79  76  90 CALM      30.01R
HUNTSVILLE     MOCLDY    83  77  82 W3        30.00R HX  92
DECATUR        PTCLDY    81  77  88 NW3       30.01R
HALEYVILLE     FAIR      76  76 100 CALM      30.05R FOG
GADSDEN        MOCLDY    86  72  62 W5        29.96S HX  92
$$

ALZ012-013-022-023-030>036-040>044-300200-
WEST CENTRAL ALABAMA

CITY           SKY/WX    TMP DP  RH WIND       PRES   REMARKS
TUSCALOOSA     CLOUDY    78  74  87 N3        29.98S
$$

ALZ015-024>027-033>036-040>044-300200-
CENTRAL ALABAMA

CITY           SKY/WX    TMP DP  RH WIND       PRES   REMARKS
BIRMINGHAM     MOCLDY    81  77  88 NE3       30.01R
MONTGOMERY     MOCLDY    82  76  81 NW3       29.95F
SHELBY CO ARPT MOCLDY    80  75  84 CALM      29.98F
MAXWELL AFB    CLOUDY    80  76  89 CALM      29.95F
GREENVILLE     FAIR      81  74  79 CALM      29.95F
$$

ALZ019-021-028-029-037-038-045>048-300200-
EAST CENTRAL ALABAMA

CITY           SKY/WX    TMP DP  RH WIND       PRES   REMARKS
ANNISTON       MOCLDY    84  76  76 SW7       29.98R HX  93
ALEXANDER CITY CLOUDY    77  73  86 CALM      29.98S
AUBURN           N/A    N/A N/A N/A MISG        N/A
$$

ALZ051>064-300200-
SOUTHWEST ALABAMA

CITY           SKY/WX    TMP DP  RH WIND       PRES   REMARKS
MOBILE         CLOUDY    81  77  88 CALM      29.98F
BROOKLEY FIELD CLOUDY    82  74  76 W3        29.98F
EVERGREEN      CLOUDY    82  77  84 CALM      29.96F HX  90
$$

ALZ049-050-065>069-300200-
SOUTHEAST ALABAMA

CITY           SKY/WX    TMP DP  RH WIND       PRES   REMARKS
DOTHAN         MOCLDY    83  76  79 W7        29.98R HX  91
OZARK          MOCLDY    80  77  90 SW3       29.95R
TROY           MOCLDY    82  76  81 CALM      29.96F
EUFAULA        FAIR      84  78  82 CALM      29.94R HX  95
$$



USA.gov is the U.S. government's official web portal to all federal, state and local government web resources and services.